Weather History for Vicksburg, MS

Change the Weather History Date:

Tuesday, August 13, 2013

  Actual Average Record
Temperature  
Mean Temperature 81 °F 81 °F  
Max Temperature 89 °F 93 °F 102 °F (2007)
Min Temperature 73 °F 70 °F 55 °F (1967)
Degree Days  
Heating Degree Days 0 0  
Month to date heating degree days 0 0  
Since 1 June heating degree days 0 0  
Since 1 July heating degree days 0 0  
Cooling Degree Days 16 16  
Month to date cooling degree days 248 218  
Year to date cooling degree days 1468 1516  
Since 1 June cooling degree days 1138 1146  
Growing Degree Days 30 (Base 50)    
Moisture  
Dew Point 76 °F    
Average Humidity 87    
Maximum Humidity 100    
Minimum Humidity 74    
Precipitation  
Precipitation 0.20 in 0.10 in 1.12 in (1968)
Month to date precipitation 1.00 1.31  
Year to date precipitation 48.10 34.23  
Sea Level Pressure  
Sea Level Pressure 29.99 in    
Wind  
Wind Speed 3 mph (SSW)    
Max Wind Speed 12 mph    
Max Gust Speed 15 mph    
Visibility 9 miles    
Events Rain , Thunderstorm    
T = Trace of Precipitation, MM = Missing Value Source: NWS Daily Summary

Daily Weather History Graph

Daily Weather History Graph

Search for Another Location

Airport:

Trip Planner

Search our weather history database for the weather conditions in past years. The results will help you decide how hot, cold, wet, or windy it might be!

Date:

Astronomy

Aug. 13, 2013 Rise Set
Actual Time 6:27 AM CDT 7:50 PM CDT
Civil Twilight 6:01 AM CDT 8:16 PM CDT
Nautical Twilight 5:29 AM CDT 8:47 PM CDT
Astronomical Twilight 4:57 AM CDT 9:19 PM CDT
Moon 12:55 PM CDT (8/13) 11:53 PM CDT (8/13)
Length of Visible Light 14h 15m
Length of Day
13h 23m
Waxing Crescent, 42% of the Moon is Illuminated
Aug 13
Waxing Crescent
Aug 14
First Quarter
Aug 20
Full
Aug 28
Last Quarter
Sep 5
New

Hourly Weather History & Observations

Time (CDT) Temp. Heat Index Dew Point Humidity Pressure Visibility Wind Dir Wind Speed Gust Speed Precip Events Conditions
12:53 AM 77.0 °F - 75.0 °F 94% 30.01 in 10.0 mi SSE 4.6 mph - N/A   Clear
1:53 AM 75.9 °F - 73.9 °F 94% 30.01 in 10.0 mi Calm Calm - N/A   Scattered Clouds
2:53 AM 75.9 °F - 73.9 °F 94% 30.00 in 10.0 mi Calm Calm - N/A   Clear
3:53 AM 75.9 °F - 73.9 °F 94% 30.00 in 10.0 mi Calm Calm - N/A   Clear
4:53 AM 75.9 °F - 73.9 °F 94% 30.00 in 10.0 mi Calm Calm - N/A   Clear
5:53 AM 75.9 °F - 75.0 °F 97% 30.01 in 9.0 mi Calm Calm - N/A   Clear
6:53 AM 77.0 °F - 75.9 °F 96% 30.02 in 9.0 mi Calm Calm - N/A   Clear
7:53 AM 79.0 °F - 77.0 °F 94% 30.03 in 10.0 mi Calm Calm - N/A   Clear
8:53 AM 81.0 °F 87.3 °F 75.9 °F 85% 30.04 in 10.0 mi SW 5.8 mph - N/A   Partly Cloudy
9:53 AM 82.9 °F 91.8 °F 77.0 °F 82% 30.04 in 10.0 mi SW 4.6 mph - N/A   Clear
10:53 AM 84.9 °F 94.1 °F 75.9 °F 74% 30.04 in 10.0 mi Variable 6.9 mph - N/A   Mostly Cloudy
11:49 AM 86.0 °F 99.3 °F 78.8 °F 79% 30.01 in 10.0 mi West 4.6 mph - 0.00 in Rain Light Rain
11:53 AM 86.0 °F 98.3 °F 78.1 °F 77% 30.03 in 10.0 mi WNW 4.6 mph - 0.00 in Rain Light Rain
12:02 PM 87.8 °F 102.5 °F 78.8 °F 75% 30.00 in 10.0 mi Calm Calm - 0.00 in   Overcast
12:10 PM 87.8 °F 102.5 °F 78.8 °F 75% 30.00 in 10.0 mi Variable 6.9 mph - 0.00 in   Mostly Cloudy
12:23 PM 82.4 °F 90.9 °F 77.0 °F 84% 30.00 in 2.5 mi NW 6.9 mph - 0.05 in Rain , Thunderstorm Heavy Rain
12:35 PM 82.4 °F 92.4 °F 78.8 °F 89% 29.98 in 10.0 mi Calm Calm - 0.05 in   Overcast
12:46 PM 82.4 °F 92.4 °F 78.8 °F 89% 29.98 in 10.0 mi NW 3.5 mph - 0.05 in Thunderstorm Thunderstorm
12:53 PM 82.0 °F 91.0 °F 78.1 °F 88% 30.00 in 10.0 mi NW 5.8 mph - 0.05 in Thunderstorm Thunderstorm
1:25 PM 80.6 °F 86.2 °F 75.2 °F 84% 29.99 in 1.8 mi NNW 8.1 mph - 0.10 in Rain , Thunderstorm Heavy Thunderstorms and Rain
1:39 PM 80.6 °F 88.1 °F 78.8 °F 94% 29.97 in 3.0 mi Calm Calm - 0.15 in Rain , Thunderstorm Light Thunderstorms and Rain
1:53 PM 80.1 °F 86.4 °F 78.1 °F 94% 29.99 in 5.0 mi Calm Calm - 0.15 in Thunderstorm Mostly Cloudy
2:37 PM 77.0 °F - 75.2 °F 94% 29.97 in 6.0 mi SSW 3.5 mph - 0.00 in Thunderstorm Mostly Cloudy
2:53 PM 77.0 °F - 75.0 °F 94% 29.99 in 9.0 mi South 3.5 mph - 0.00 in Thunderstorm Mostly Cloudy
3:07 PM 78.8 °F - 75.2 °F 89% 29.96 in 10.0 mi SSE 3.5 mph - N/A Thunderstorm Mostly Cloudy
3:21 PM 78.8 °F - 75.2 °F 89% 29.95 in 9.0 mi South 3.5 mph - N/A   Scattered Clouds
3:53 PM 79.0 °F - 75.9 °F 90% 29.96 in 10.0 mi NE 4.6 mph - N/A   Clear
4:53 PM 82.0 °F 90.2 °F 77.0 °F 85% 29.97 in 10.0 mi Calm Calm - N/A   Clear
5:53 PM 81.0 °F 87.3 °F 75.9 °F 85% 29.98 in 10.0 mi SSE 6.9 mph - N/A   Partly Cloudy
6:53 PM 79.0 °F - 77.0 °F 94% 29.99 in 8.0 mi South 6.9 mph - N/A   Mostly Cloudy
7:37 PM 77.0 °F - 75.2 °F 94% 29.98 in 10.0 mi SSW 3.5 mph - 0.00 in   Mostly Cloudy
7:53 PM 78.1 °F - 75.9 °F 93% 29.99 in 10.0 mi South 4.6 mph - 0.00 in   Mostly Cloudy
8:40 PM 75.2 °F - 75.2 °F 100% 29.96 in 10.0 mi South 6.9 mph - N/A   Scattered Clouds
8:53 PM 75.9 °F - 73.9 °F 94% 29.97 in 10.0 mi South 4.6 mph - N/A   Partly Cloudy
9:53 PM 75.0 °F - 73.9 °F 96% 29.96 in 8.0 mi SSE 3.5 mph - N/A   Clear
10:53 PM 73.0 °F - 72.0 °F 96% 29.97 in 9.0 mi Calm Calm - 0.00 in   Clear
11:19 PM 73.4 °F - 73.4 °F 100% 29.95 in 10.0 mi Calm Calm - N/A   Mostly Cloudy
11:51 PM 73.4 °F - 73.4 °F 100% 29.96 in 9.0 mi Calm Calm - N/A   Scattered Clouds
11:53 PM 73.9 °F - 73.0 °F 97% 29.97 in 9.0 mi Calm Calm - N/A   Partly Cloudy